Location: Newark
(30.2328°N, 54.2869°E)
Time: 09:42:54
(UTC+00:00)

Hubble Space Telescope - Pass Details

Date: 31 July 2019
Orbit: 536 x 540 km, 28.5° (Epoch: 23 August)

Event Time Altitude Azimuth Distance (km) Brightness Sun altitude
Exits shadow 23:54:39 62° 190° (S) 604 0.7 -20.9°
Maximum altitude 23:54:50 63° 174° (S) 599 0.8 -20.8°
Drops below altitude 10° 23:58:56 10° 92° (E) 1,786 4.1 -20.1°
Sets 00:01:12 0° 89° (E) 2,677 5.2 -19.7°
